This demonstration page uses our WeatherBlox Daily Observations layout. Learn more.

Left ArrowRight Arrow

39.12711, -84.51439

Hourly Observations for December 24, 2018

Temp ( °F °C ) Dew Point ( °F °C ) Humidity (%) Winds ( mph kmh ) Pressure ( in mb ) Visibility ( mi km ) Precip ( " mm )
12:53 am 00:53 Clear 31 -0.6 27 -2.8 85 85 SW 5 7 30.27 1025 9 14 0.00 0.00
1:53 am 01:53 Clear 31 -0.6 27 -2.8 85 85 SW 7 11 30.27 1025 8 13 0.00 0.00
2:53 am 02:53 Clear 30 -1.1 27 -2.8 88 88 SW 6 9 30.29 1026 8 13 0.00 0.00
3:53 am 03:53 Clear 30 -1.1 27 -2.8 88 88 SSW 7 11 30.29 1026 8 13 0.00 0.00
4:53 am 04:53 Clear 30 -1.1 26 -3.3 85 85 SW 7 11 30.29 1026 7 11 0.00 0.00
5:53 am 05:53 Clear 28 -2.2 26 -3.3 92 92 SW 3 6 30.30 1026 8 13 0.00 0.00
6:53 am 06:53 Clear 29 -1.7 26 -3.3 89 89 WSW 3 6 30.31 1026 8 13 0.00 0.00
7:53 am 07:53 Clear 28 -2.2 25 -3.9 88 88 Calm 30.31 1027 7 11 0.00 0.00
8:53 am 08:53 Sunny with Mist and Fog 30 -1.1 27 -2.8 88 88 Calm 30.32 1027 6 10 0.00 0.00
9:53 am 09:53 Sunny 33 0.6 28 -2.2 82 82 SW 7 11 30.33 1027 8 13 0.00 0.00
10:53 am 10:53 Sunny 37 2.8 29 -1.7 73 73 WSW 7 11 30.32 1027 10 16 0.00 0.00
11:53 am 11:53 Sunny 39 3.9 29 -1.7 67 67 WSW 8 13 30.30 1026 10 16 0.00 0.00
12:53 pm 12:53 Sunny 41 5 29 -1.7 62 62 undefined N/A 30.29 1026 10 16 0.00 0.00
1:53 pm 13:53 Sunny 43 6.1 28 -2.2 56 56 W 7 11 30.27 1025 10 16 0.00 0.00
2:53 pm 14:53 Sunny 43 6.1 27 -2.8 53 53 WSW 9 15 30.27 1025 10 16 0.00 0.00
3:53 pm 15:53 Sunny 44 6.7 24 -4.4 45 45 W 10 17 30.28 1026 10 16 0.00 0.00
4:53 pm 16:53 Sunny 41 5 24 -4.4 51 51 W 9 15 30.28 1026 10 16 0.00 0.00
5:53 pm 17:53 Clear 40 4.4 24 -4.4 53 53 WNW 3 6 30.30 1026 10 16 0.00 0.00
6:53 pm 18:53 Clear 33 0.6 27 -2.8 78 78 Calm 30.31 1027 10 16 0.00 0.00
7:53 pm 19:53 Clear 31 -0.6 27 -2.8 85 85 Calm 30.32 1027 10 16 0.00 0.00
8:53 pm 20:53 Clear 31 -0.6 27 -2.8 85 85 NE 3 6 30.29 1026 10 16 0.00 0.00
9:53 pm 21:53 Clear 29 -1.7 26 -3.3 89 89 Calm 30.30 1026 10 16 0.00 0.00
10:53 pm 22:53 Clear 30 -1.1 27 -2.8 88 88 Calm 30.32 1027 10 16 0.00 0.00
11:53 pm 23:53 Clear 30 -1.1 27 -2.8 88 88 Calm 30.32 1027 10 16 0.00 0.00

Powered by AerisWeather